Weather History for KDCA - March, 2013

Change the Weather History Date:

Thursday, March 14, 2013

  Actual Average Record
Temperature  
Mean Temperature 41 °F 46 °F  
Max Temperature 47 °F 55 °F 86 °F (1990)
Min Temperature 34 °F 37 °F 13 °F (1888)
Degree Days  
Heating Degree Days 24 19  
Month to date heating degree days 299 294  
Since 1 July heating degree days 3113 3402  
Cooling Degree Days 0 0  
Month to date cooling degree days 0 0  
Year to date cooling degree days 0 0  
Moisture  
Dew Point 14 °F    
Average Humidity 35    
Maximum Humidity 47    
Minimum Humidity 23    
Precipitation  
Precipitation 0.00 in 0.11 in 1.66 in (1940)
Month to date precipitation 1.86 1.41  
Year to date precipitation 6.06 6.84  
Snow  
Snow 0.00 in 0.10 in 4.00 in (1937)
Month to date snowfall 0.2 1.0  
Since 1 July snowfall 1.7 15.1  
Snow Depth 0.00 in    
Sea Level Pressure  
Sea Level Pressure 30.09 in    
Wind  
Wind Speed 15 mph (WNW)    
Max Wind Speed 32 mph    
Max Gust Speed 39 mph    
Visibility 10 miles    
Events      
T = Trace of Precipitation, MM = Missing Value Source: NWS Daily Summary

Daily Weather History Graph

Daily Weather History Graph

Search for Another Location

Airport or City:

Trip Planner

Search our weather history database for the weather conditions in past years. The results will help you decide how hot, cold, wet, or windy it might be!

Date:

Astronomy

Mar. 14, 2013 Rise Set
Actual Time 7:20 AM EDT 7:14 PM EDT
Civil Twilight 6:54 AM EDT 7:40 PM EDT
Nautical Twilight 6:23 AM EDT 8:11 PM EDT
Astronomical Twilight 5:52 AM EDT 8:43 PM EDT
Moon 8:35 AM EDT (3/14) 10:26 PM EDT (3/14)
Length of Visible Light 12h 46m
Length of Day
11h 53m
Waxing Crescent, 9% of the Moon is Illuminated
Mar 14
Waxing Crescent
Mar 19
First Quarter
Mar 27
Full
Apr 3
Last Quarter
Apr 10
New

Hourly Weather History & Observations

Time (EDT) Temp. Windchill Dew Point Humidity Pressure Visibility Wind Dir Wind Speed Gust Speed Precip Events Conditions
12:52 AM 36.0 °F 25.6 °F 17.1 °F 46% 30.09 in 10.0 mi NW 18.4 mph 25.3 mph N/A   Mostly Cloudy
1:52 AM 36.0 °F 26.3 °F 17.1 °F 46% 30.09 in 10.0 mi NW 16.1 mph 20.7 mph N/A   Mostly Cloudy
2:52 AM 35.1 °F 28.6 °F 18.0 °F 50% 30.08 in 10.0 mi WNW 8.1 mph 21.9 mph N/A   Scattered Clouds
3:52 AM 35.1 °F 25.9 °F 17.1 °F 48% 30.08 in 10.0 mi NW 13.8 mph 18.4 mph N/A   Scattered Clouds
4:52 AM 34.0 °F 23.4 °F 12.9 °F 42% 30.08 in 10.0 mi NW 17.3 mph 27.6 mph N/A   Scattered Clouds
5:52 AM 34.0 °F 25.0 °F 12.9 °F 42% 30.09 in 10.0 mi WNW 12.7 mph 18.4 mph N/A   Scattered Clouds
6:52 AM 34.0 °F 24.2 °F 12.9 °F 42% 30.11 in 10.0 mi NW 15.0 mph 23.0 mph N/A   Mostly Cloudy
7:52 AM 34.0 °F 24.2 °F 14.0 °F 44% 30.13 in 10.0 mi WNW 15.0 mph 20.7 mph N/A   Mostly Cloudy
8:52 AM 36.0 °F 28.5 °F 14.0 °F 41% 30.14 in 10.0 mi WNW 10.4 mph 21.9 mph N/A   Scattered Clouds
9:52 AM 37.4 °F 28.2 °F 12.2 °F 36% 30.15 in 10.0 mi NW 16.1 mph 29.9 mph N/A   Scattered Clouds
10:52 AM 39.0 °F 28.8 °F 14.0 °F 36% 30.15 in 10.0 mi WNW 21.9 mph 28.8 mph N/A   Scattered Clouds
11:52 AM 41.0 °F 31.9 °F 14.0 °F 33% 30.13 in 10.0 mi NNW 19.6 mph 31.1 mph N/A   Scattered Clouds
12:52 PM 42.1 °F 33.1 °F 15.1 °F 34% 30.11 in 10.0 mi West 20.7 mph 28.8 mph N/A   Scattered Clouds
1:52 PM 44.1 °F 35.4 °F 14.0 °F 30% 30.09 in 10.0 mi West 21.9 mph 28.8 mph N/A   Partly Cloudy
2:52 PM 45.0 °F 36.2 °F 12.9 °F 27% 30.05 in 10.0 mi WNW 24.2 mph 39.1 mph N/A   Partly Cloudy
3:52 PM 46.9 °F - 12.9 °F 25% 30.04 in 10.0 mi WNW 17.3 mph 28.8 mph N/A   Clear
4:52 PM 46.9 °F - 12.0 °F 24% 30.04 in 10.0 mi NW 23.0 mph 33.4 mph N/A   Clear
5:52 PM 46.0 °F 37.8 °F 10.0 °F 23% 30.05 in 10.0 mi NW 23.0 mph 33.4 mph N/A   Partly Cloudy
6:52 PM 44.1 °F 36.8 °F 12.0 °F 27% 30.06 in 10.0 mi NW 16.1 mph 26.5 mph N/A   Clear
7:52 PM 43.0 °F 35.4 °F 12.9 °F 30% 30.08 in 10.0 mi WNW 16.1 mph 25.3 mph N/A   Clear
8:52 PM 42.1 °F 35.7 °F 12.9 °F 31% 30.08 in 10.0 mi NW 11.5 mph - N/A   Clear
9:52 PM 41.0 °F 39.0 °F 12.9 °F 32% 30.09 in 10.0 mi West 3.5 mph - N/A   Clear
10:52 PM 39.9 °F 34.5 °F 15.1 °F 36% 30.10 in 10.0 mi West 8.1 mph - N/A   Clear
11:52 PM 39.0 °F - 14.0 °F 36% 30.11 in 10.0 mi Calm Calm - N/A   Clear